Ketchikan, AK

10:46 PM AKDT on September 20, 2018 (GMT -0800)
Ketchikan International

Weather History for PAKT - August, 2018

Change the Weather History Date:

Saturday, August 4, 2018

  Actual Average Record
Temperature  
Mean Temperature 60 °F -  
Max Temperature 68 °F 66 °F 86 °F (1977)
Min Temperature 53 °F 52 °F 46 °F (1966)
Degree Days  
Heating Degree Days 5    
Growing Degree Days 10 (Base 50)    
Moisture  
Dew Point 54 °F    
Average Humidity 78    
Maximum Humidity 93    
Minimum Humidity 64    
Precipitation  
Precipitation 0.00 in - - ()
Sea Level Pressure  
Sea Level Pressure 30.01 in    
Wind  
Wind Speed 9 mph (SSE)    
Max Wind Speed 14 mph    
Max Gust Speed 22 mph    
Visibility 10 miles    
Events Rain    
Averages and records for this station are not official NWS values.
T = Trace of Precipitation, MM = Missing Value Source: NWS Daily Summary

Daily Weather History Graph

Daily Weather History Graph

Search for Another Location

Airport or City:

Astronomy

Aug. 04, 2018 Rise Set
Actual Time 4:59 AM AKDT 8:44 PM AKDT
Civil Twilight 4:13 AM AKDT 9:30 PM AKDT
Nautical Twilight 3:08 AM AKDT 10:34 PM AKDT
Astronomical Twilight 1:25 AM AKDT 12:20 AM AKDT
Moon 11:51 PM AKDT (8/4) 1:51 PM AKDT (8/4)
Length of Visible Light 17h 16m
Length of Day
15h 44m
Waning Gibbous, 49% of the Moon is Illuminated
Aug 4
Waning Gibbous
Aug 11
New
Aug 17
First Quarter
Aug 26
Full
Sep 2
Last Quarter

Hourly Weather History & Observations

Time (AKDT) Temp. Dew Point Humidity Pressure Visibility Wind Dir Wind Speed Gust Speed Precip Events Conditions
12:53 AM 60.1 °F 55.9 °F 86% 29.93 in 10.0 mi SSE 9.2 mph 20.7 mph 0.00 in Rain Light Rain
1:53 AM 62.1 °F 55.0 °F 78% 29.94 in 10.0 mi SSE 12.7 mph - 0.00 in   Overcast
2:53 AM 61.0 °F 55.0 °F 81% 29.95 in 10.0 mi SSE 9.2 mph - 0.00 in   Overcast
3:53 AM 60.1 °F 55.0 °F 83% 29.95 in 10.0 mi South 6.9 mph - N/A   Overcast
4:48 AM 60.8 °F 55.4 °F 82% 29.95 in 10.0 mi SE 11.5 mph 21.9 mph 0.00 in   Overcast
4:53 AM 61.0 °F 55.0 °F 81% 29.96 in 10.0 mi SE 9.2 mph - 0.00 in   Overcast
5:53 AM 61.0 °F 55.0 °F 81% 29.96 in 10.0 mi SSE 10.4 mph - N/A   Overcast
6:00 AM 60.8 °F 53.6 °F 77% 29.96 in 10.0 mi SSE 8.1 mph - N/A   Overcast
6:53 AM 60.8 °F 53.6 °F 77% 29.99 in 10.0 mi SSE 9.2 mph - N/A   Overcast
7:53 AM 60.8 °F 55.4 °F 82% 30.00 in 10.0 mi South 4.6 mph - N/A Rain Light Rain
8:49 AM 60.8 °F 55.4 °F 82% 30.01 in 2.5 mi SSE 8.1 mph - N/A Rain Light Rain
8:53 AM 60.8 °F 55.4 °F 82% 30.01 in 3.0 mi SSE 9.2 mph - N/A Rain Light Rain
9:53 AM 60.8 °F 57.2 °F 88% 30.03 in 10.0 mi South 5.8 mph - N/A   Overcast
10:53 AM 62.6 °F 55.4 °F 77% 30.03 in 10.0 mi SE 10.4 mph - N/A   Mostly Cloudy
11:53 AM 64.4 °F 55.4 °F 73% 30.04 in 10.0 mi ESE 11.5 mph - N/A   Mostly Cloudy
12:53 PM 66.2 °F 55.4 °F 68% 30.04 in 10.0 mi SSE 10.4 mph - N/A   Mostly Cloudy
1:53 PM 66.9 °F 55.0 °F 66% 30.05 in 10.0 mi SE 10.4 mph - N/A   Mostly Cloudy
2:53 PM 66.2 °F 53.6 °F 64% 30.05 in 10.0 mi SE 11.5 mph - N/A   Scattered Clouds
3:53 PM 66.2 °F 53.6 °F 64% 30.05 in 10.0 mi SE 13.8 mph - N/A   Scattered Clouds
4:53 PM 64.4 °F 53.6 °F 68% 30.05 in 10.0 mi East 12.7 mph - N/A   Scattered Clouds
5:53 PM 64.4 °F 53.6 °F 68% 30.04 in 10.0 mi ESE 11.5 mph - N/A   Partly Cloudy
6:53 PM 62.6 °F 53.6 °F 72% 30.04 in 10.0 mi ESE 10.4 mph - N/A   Partly Cloudy
7:53 PM 60.8 °F 53.6 °F 77% 30.04 in 10.0 mi SSE 4.6 mph - N/A   Clear
8:53 PM 57.2 °F 53.6 °F 88% 30.05 in 10.0 mi South 4.6 mph - N/A   Clear
9:53 PM 55.0 °F 51.1 °F 86% 30.06 in 10.0 mi SSW 3.5 mph - N/A   Clear
10:53 PM 54.0 °F 51.1 °F 90% 30.06 in 10.0 mi SSW 3.5 mph - N/A   Clear
11:53 PM 53.1 °F 51.1 °F 93% 30.06 in 10.0 mi Calm Calm - N/A   Clear